| time (UTC) | temp C | wind direction | speed KPH | gust KPH | rain 1hr cm | rain 24hr cm | rain mn cm | humidity % | barometer mb |
| 20260506103531 | 12 | 314 | 3.2 | 4.8 | 0.00 | 0.03 | 0.00 | 72 | 1014.9 |
| 20260506103034 | 12 | 340 | 1.6 | 8.0 | 0.00 | 0.03 | 0.00 | 72 | 1014.9 |
| 20260506102534 | 12 | 279 | 3.2 | 8.0 | 0.00 | 0.03 | 0.00 | 72 | 1014.9 |
| 20260506102024 | 12 | 309 | 3.2 | 4.8 | 0.00 | 0.03 | 0.00 | 73 | 1014.9 |
| 20260506101536 | 12 | 1 | 1.6 | 3.2 | 0.00 | 0.03 | 0.00 | 72 | 1014.8 |
| 20260506101040 | 12 | 314 | 1.6 | 6.4 | 0.00 | 0.03 | 0.00 | 72 | 1014.8 |
| 20260506100534 | 12 | 310 | 1.6 | 6.4 | 0.00 | 0.03 | 0.00 | 71 | 1014.8 |
| 20260506100033 | 12 | 288 | 3.2 | 6.4 | 0.00 | 0.03 | 0.00 | 71 | 1014.8 |
| 20260506095523 | 12 | 295 | 4.8 | 6.4 | 0.00 | 0.10 | 0.00 | 71 | 1014.8 |
| 20260506095033 | 12 | 304 | 4.8 | 6.4 | 0.00 | 0.10 | 0.00 | 71 | 1014.7 |
| 20260506094538 | 12 | 272 | 4.8 | 8.0 | 0.00 | 0.10 | 0.00 | 71 | 1014.7 |
| 20260506094037 | 12 | 278 | 6.4 | 8.0 | 0.00 | 0.10 | 0.00 | 71 | 1014.8 |
| 20260506093547 | 12 | 274 | 4.8 | 6.4 | 0.00 | 0.10 | 0.00 | 73 | 1014.7 |
| 20260506093030 | 12 | 276 | 3.2 | 3.2 | 0.00 | 0.10 | 0.00 | 74 | 1014.7 |
| 20260506092534 | 12 | 233 | 1.6 | 3.2 | 0.00 | 0.10 | 0.00 | 74 | 1014.7 |
| 20260506092037 | 12 | 324 | 1.6 | 3.2 | 0.00 | 0.10 | 0.00 | 73 | 1014.7 |
| 20260506091537 | 12 | 314 | 1.6 | 3.2 | 0.00 | 0.10 | 0.00 | 73 | 1014.7 |
| 20260506091108 | 12 | 89 | 1.6 | 3.2 | 0.00 | 0.10 | 0.00 | 73 | 1014.7 |
| 20260506090550 | 12 | 360 | 1.6 | 3.2 | 0.00 | 0.10 | 0.00 | 72 | 1014.7 |
| 20260506090033 | 12 | 324 | 1.6 | 3.2 | 0.00 | 0.10 | 0.00 | 72 | 1014.7 |
| 20260506085537 | 13 | 1 | 3.2 | 3.2 | 0.00 | 0.15 | 0.00 | 72 | 1014.8 |
| 20260506085047 | 13 | 35 | 1.6 | 3.2 | 0.00 | 0.15 | 0.00 | 72 | 1014.7 |
| 20260506084549 | 13 | 1 | 1.6 | 3.2 | 0.00 | 0.15 | 0.00 | 71 | 1014.7 |
| 20260506084030 | 13 | 269 | 1.6 | 3.2 | 0.00 | 0.15 | 0.00 | 70 | 1014.7 |
| 20260506083558 | 13 | 314 | 0.0 | 3.2 | 0.00 | 0.15 | 0.00 | 70 | 1014.7 |
| 20260506083026 | 13 | 1 | 1.6 | 3.2 | 0.00 | 0.15 | 0.00 | 70 | 1014.7 |
| 20260506082537 | 13 | 223 | 1.6 | 3.2 | 0.00 | 0.15 | 0.00 | 70 | 1014.8 |
| 20260506082040 | 13 | 112 | 3.2 | 3.2 | 0.00 | 0.15 | 0.00 | 70 | 1014.8 |
| 20260506081522 | 13 | 314 | 1.6 | 3.2 | 0.00 | 0.15 | 0.00 | 69 | 1014.8 |
| 20260506081049 | 13 | 46 | 1.6 | 4.8 | 0.00 | 0.15 | 0.00 | 68 | 1014.8 |
| 20260506080551 | 13 | 331 | 3.2 | 4.8 | 0.00 | 0.15 | 0.00 | 68 | 1014.8 |
| 20260506073103 | 13 | 9 | 3.2 | 4.8 | 0.00 | 0.28 | 0.00 | 68 | 1014.9 |
| 20260506072553 | 14 | 302 | 3.2 | 4.8 | 0.00 | 0.28 | 0.00 | 66 | 1014.9 |
| 20260506072044 | 14 | 283 | 3.2 | 4.8 | 0.00 | 0.28 | 0.00 | 65 | 1014.8 |
| 20260506071554 | 14 | 277 | 1.6 | 3.2 | 0.00 | 0.28 | 0.00 | 66 | 1014.8 |
| 20260506071033 | 14 | 314 | 1.6 | 3.2 | 0.00 | 0.28 | 0.00 | 65 | 1014.8 |
| 20260506070543 | 14 | 117 | 1.6 | 4.8 | 0.00 | 0.28 | 0.00 | 65 | 1014.8 |
| 20260506062026 | 16 | 269 | 1.6 | 4.8 | 0.00 | 0.41 | 0.28 | 57 | 1014.6 |
| 20260506061537 | 16 | 223 | 3.2 | 4.8 | 0.00 | 0.41 | 0.28 | 57 | 1014.5 |
| 20260506061040 | 16 | 286 | 3.2 | 4.8 | 0.00 | 0.41 | 0.28 | 55 | 1014.5 |
| 20260506060523 | 16 | 286 | 3.2 | 4.8 | 0.00 | 0.41 | 0.28 | 54 | 1014.6 |
| 20260506051041 | 17 | 293 | 8.0 | 12.9 | 0.00 | 0.48 | 0.28 | 52 | 1014.1 |
| 20260506050545 | 17 | 293 | 8.0 | 12.9 | 0.00 | 0.48 | 0.28 | 52 | 1014.2 |
| 20260506045032 | 17 | 284 | 4.8 | 12.9 | 0.00 | 0.56 | 0.28 | 52 | 1014.0 |
| 20260506044544 | 17 | 312 | 8.0 | 12.9 | 0.00 | 0.56 | 0.28 | 51 | 1014.0 |
| 20260506044042 | 17 | 311 | 6.4 | 14.5 | 0.00 | 0.56 | 0.28 | 51 | 1013.9 |
| 20260506043524 | 17 | 285 | 4.8 | 14.5 | 0.00 | 0.56 | 0.28 | 51 | 1013.9 |
| 20260506043031 | 17 | 284 | 3.2 | 9.7 | 0.00 | 0.56 | 0.28 | 51 | 1013.9 |
| 20260506042540 | 17 | 340 | 3.2 | 11.3 | 0.00 | 0.56 | 0.28 | 51 | 1013.9 |
| 20260506042044 | 17 | 276 | 8.0 | 11.3 | 0.00 | 0.56 | 0.28 | 50 | 1013.8 |
| 20260506041526 | 17 | 318 | 8.0 | 9.7 | 0.00 | 0.56 | 0.28 | 50 | 1013.7 |
| 20260506041032 | 17 | 293 | 6.4 | 11.3 | 0.00 | 0.56 | 0.28 | 50 | 1013.5 |
| 20260506040544 | 17 | 309 | 6.4 | 16.1 | 0.00 | 0.56 | 0.28 | 49 | 1013.4 |
| 20260506040046 | 18 | 304 | 6.4 | 16.1 | 0.00 | 0.56 | 0.28 | 49 | 1013.4 |
| 20260506035548 | 18 | 314 | 8.0 | 14.5 | 0.00 | 0.56 | 0.28 | 48 | 1013.3 |
| 20260506035026 | 18 | 309 | 8.0 | 12.9 | 0.00 | 0.56 | 0.28 | 48 | 1013.1 |
| 20260506034638 | 18 | 300 | 9.7 | 14.5 | 0.00 | 0.56 | 0.28 | 48 | 1013.1 |
| 20260506034035 | 18 | 315 | 8.0 | 14.5 | 0.00 | 0.56 | 0.28 | 47 | 1013.0 |
| 20260506033538 | 18 | 296 | 8.0 | 14.5 | 0.00 | 0.56 | 0.28 | 47 | 1013.0 |
| 20260506033038 | 18 | 284 | 8.0 | 17.7 | 0.00 | 0.56 | 0.28 | 47 | 1013.0 |
| 20260506032549 | 18 | 271 | 9.7 | 17.7 | 0.00 | 0.56 | 0.28 | 46 | 1012.9 |
| 20260506032031 | 18 | 278 | 9.7 | 19.3 | 0.00 | 0.56 | 0.28 | 46 | 1012.7 |
| 20260506031535 | 18 | 295 | 12.9 | 22.5 | 0.00 | 0.56 | 0.28 | 45 | 1012.6 |
| 20260506031042 | 18 | 264 | 14.5 | 22.5 | 0.00 | 0.56 | 0.28 | 44 | 1012.5 |
| 20260506030533 | 19 | 295 | 9.7 | 16.1 | 0.00 | 0.56 | 0.28 | 41 | 1012.5 |
| 20260506030044 | 19 | 309 | 9.7 | 20.9 | 0.00 | 0.56 | 0.28 | 39 | 1012.3 |
| 20260506025525 | 19 | 278 | 9.7 | 19.3 | 0.00 | 0.58 | 0.28 | 38 | 1012.2 |
| 20260506025036 | 19 | 302 | 11.3 | 19.3 | 0.00 | 0.58 | 0.28 | 37 | 1012.2 |
| 20260506024535 | 19 | 264 | 11.3 | 24.1 | 0.00 | 0.58 | 0.28 | 36 | 1012.1 |
| 20260506024046 | 19 | 269 | 11.3 | 20.9 | 0.00 | 0.58 | 0.28 | 36 | 1012.1 |
| 20260506023529 | 20 | 264 | 11.3 | 30.6 | 0.00 | 0.58 | 0.28 | 35 | 1011.9 |
| 20260506023100 | 20 | 288 | 11.3 | 22.5 | 0.00 | 0.58 | 0.28 | 34 | 1011.8 |
| 20260506022538 | 20 | 307 | 14.5 | 29.0 | 0.00 | 0.58 | 0.28 | 32 | 1011.8 |
| 20260506022049 | 20 | 278 | 14.5 | 29.0 | 0.00 | 0.58 | 0.28 | 31 | 1011.6 |
| 20260506021531 | 20 | 248 | 20.9 | 29.0 | 0.00 | 0.58 | 0.28 | 32 | 1011.6 |
| 20260506021103 | 20 | 283 | 16.1 | 30.6 | 0.00 | 0.58 | 0.28 | 32 | 1011.4 |
| 20260506020540 | 20 | 277 | 17.7 | 35.4 | 0.00 | 0.58 | 0.28 | 32 | 1011.3 |
| 20260506020030 | 20 | 298 | 19.3 | 35.4 | 0.00 | 0.58 | 0.28 | 32 | 1011.2 |
| 20260506015610 | 21 | 271 | 19.3 | 30.6 | 0.00 | 0.64 | 0.28 | 32 | 1011.2 |
| 20260506015039 | 21 | 236 | 17.7 | 30.6 | 0.00 | 0.64 | 0.28 | 31 | 1011.2 |
| 20260506014538 | 21 | 274 | 22.5 | 40.2 | 0.00 | 0.64 | 0.28 | 30 | 1011.3 |
| 20260506014029 | 21 | 298 | 19.3 | 40.2 | 0.00 | 0.64 | 0.28 | 30 | 1011.2 |
| 20260506013539 | 21 | 279 | 19.3 | 33.8 | 0.00 | 0.64 | 0.28 | 31 | 1011.2 |
| 20260506013042 | 21 | 257 | 17.7 | 33.8 | 0.00 | 0.64 | 0.28 | 31 | 1011.2 |
| 20260506012545 | 21 | 297 | 19.3 | 33.8 | 0.00 | 0.64 | 0.28 | 31 | 1011.2 |
| 20260506012023 | 21 | 290 | 19.3 | 30.6 | 0.00 | 0.64 | 0.28 | 32 | 1011.2 |
| 20260506011534 | 21 | 317 | 16.1 | 32.2 | 0.00 | 0.64 | 0.28 | 32 | 1011.2 |
| 20260506011038 | 21 | 303 | 19.3 | 32.2 | 0.00 | 0.64 | 0.28 | 31 | 1011.1 |
| 20260506010541 | 21 | 274 | 17.7 | 32.2 | 0.00 | 0.64 | 0.28 | 32 | 1011.1 |
| 20260506010041 | 22 | 297 | 22.5 | 32.2 | 0.00 | 0.64 | 0.28 | 31 | 1011.1 |
| 20260506005532 | 22 | 269 | 17.7 | 30.6 | 0.00 | 0.66 | 0.28 | 31 | 1011.0 |
| 20260506005039 | 22 | 276 | 16.1 | 35.4 | 0.00 | 0.66 | 0.28 | 31 | 1010.9 |
| 20260506004542 | 22 | 266 | 20.9 | 33.8 | 0.00 | 0.66 | 0.28 | 31 | 1010.9 |
| 20260506004024 | 22 | 293 | 20.9 | 33.8 | 0.00 | 0.66 | 0.28 | 30 | 1010.8 |
| 20260506003530 | 22 | 274 | 12.9 | 24.1 | 0.00 | 0.66 | 0.28 | 28 | 1010.7 |
| 20260506003041 | 22 | 303 | 17.7 | 29.0 | 0.00 | 0.66 | 0.28 | 29 | 1010.8 |
| 20260506002545 | 22 | 253 | 17.7 | 29.0 | 0.00 | 0.66 | 0.28 | 27 | 1010.8 |
| 20260506002047 | 23 | 248 | 17.7 | 33.8 | 0.00 | 0.66 | 0.28 | 26 | 1010.7 |
| 20260506001545 | 23 | 265 | 25.7 | 33.8 | 0.00 | 0.66 | 0.28 | 26 | 1010.8 |
| 20260506001055 | 23 | 245 | 20.9 | 33.8 | 0.00 | 0.66 | 0.28 | 26 | 1010.7 |
| 20260506000537 | 23 | 274 | 14.5 | 27.4 | 0.00 | 0.66 | 0.28 | 26 | 1010.6 |
| 20260506000039 | 23 | 278 | 16.1 | 29.0 | 0.00 | 0.66 | 0.28 | 26 | 1010.5 |
| 20260505235538 | 23 | 243 | 19.3 | 32.2 | 0.00 | 0.66 | 0.28 | 26 | 1010.7 |
| 20260505235048 | 24 | 248 | 19.3 | 32.2 | 0.00 | 0.66 | 0.28 | 26 | 1010.5 |
| 20260505234607 | 24 | 274 | 14.5 | 33.8 | 0.00 | 0.66 | 0.28 | 26 | 1010.5 |
| 20260505234025 | 24 | 236 | 19.3 | 33.8 | 0.00 | 0.66 | 0.28 | 25 | 1010.4 |
| 20260505233532 | 24 | 259 | 19.3 | 30.6 | 0.00 | 0.66 | 0.28 | 25 | 1010.4 |
| 20260505233042 | 24 | 305 | 16.1 | 30.6 | 0.00 | 0.66 | 0.28 | 26 | 1010.3 |
| 20260505232543 | 25 | 219 | 16.1 | 30.6 | 0.00 | 0.66 | 0.28 | 26 | 1010.3 |
| 20260505232046 | 25 | 291 | 19.3 | 33.8 | 0.00 | 0.66 | 0.28 | 25 | 1010.3 |
| 20260505231544 | 25 | 264 | 20.9 | 33.8 | 0.00 | 0.66 | 0.28 | 26 | 1010.3 |
| 20260505231033 | 25 | 240 | 17.7 | 35.4 | 0.00 | 0.66 | 0.28 | 27 | 1010.3 |
| 20260505230544 | 24 | 307 | 12.9 | 35.4 | 0.00 | 0.66 | 0.28 | 27 | 1010.2 |
| 20260505230035 | 24 | 221 | 17.7 | 32.2 | 0.00 | 0.66 | 0.28 | 27 | 1010.3 |
| 20260505225603 | 24 | 269 | 16.1 | 33.8 | 0.00 | 0.66 | 0.28 | 27 | 1010.4 |
| 20260505225034 | 24 | 278 | 24.1 | 33.8 | 0.00 | 0.66 | 0.28 | 28 | 1010.4 |
| 20260505224606 | 23 | 243 | 19.3 | 30.6 | 0.00 | 0.66 | 0.28 | 28 | 1010.3 |
| 20260505224048 | 24 | 246 | 9.7 | 32.2 | 0.00 | 0.66 | 0.28 | 28 | 1010.4 |
| 20260505223546 | 24 | 272 | 20.9 | 37.0 | 0.00 | 0.66 | 0.28 | 28 | 1010.5 |
| 20260505223024 | 23 | 274 | 19.3 | 40.2 | 0.00 | 0.66 | 0.28 | 29 | 1010.5 |
| 20260505222546 | 23 | 234 | 17.7 | 30.6 | 0.00 | 0.66 | 0.28 | 29 | 1010.5 |
| 20260505222030 | 23 | 257 | 14.5 | 33.8 | 0.00 | 0.66 | 0.28 | 28 | 1010.7 |
| 20260505221603 | 23 | 225 | 22.5 | 33.8 | 0.00 | 0.66 | 0.28 | 29 | 1010.8 |
| 20260505221042 | 23 | 223 | 19.3 | 30.6 | 0.00 | 0.66 | 0.28 | 28 | 1010.8 |
| 20260505220534 | 23 | 234 | 19.3 | 35.4 | 0.00 | 0.66 | 0.28 | 28 | 1010.8 |
| 20260505220036 | 23 | 209 | 20.9 | 35.4 | 0.00 | 0.66 | 0.28 | 28 | 1010.8 |
| 20260505215540 | 23 | 233 | 19.3 | 32.2 | 0.00 | 0.66 | 0.28 | 28 | 1010.8 |
| 20260505215039 | 23 | 293 | 17.7 | 35.4 | 0.00 | 0.66 | 0.28 | 29 | 1010.9 |
| 20260505214541 | 23 | 227 | 16.1 | 38.6 | 0.00 | 0.66 | 0.28 | 30 | 1011.1 |
| 20260505214045 | 23 | 234 | 22.5 | 40.2 | 0.00 | 0.66 | 0.28 | 29 | 1011.2 |
| 20260505213547 | 23 | 219 | 24.1 | 40.2 | 0.00 | 0.66 | 0.28 | 29 | 1011.1 |
| 20260505213050 | 23 | 206 | 22.5 | 40.2 | 0.00 | 0.66 | 0.28 | 29 | 1011.3 |
| 20260505212529 | 24 | 178 | 20.9 | 40.2 | 0.00 | 0.66 | 0.28 | 28 | 1011.4 |
| 20260505212039 | 24 | 269 | 20.9 | 43.5 | 0.00 | 0.66 | 0.28 | 29 | 1011.4 |
| 20260505211545 | 23 | 262 | 22.5 | 43.5 | 0.00 | 0.66 | 0.28 | 30 | 1011.4 |
| 20260505211028 | 23 | 218 | 22.5 | 38.6 | 0.00 | 0.66 | 0.28 | 31 | 1011.6 |
| 20260505210534 | 23 | 248 | 25.7 | 38.6 | 0.00 | 0.66 | 0.28 | 30 | 1011.7 |
| 20260505210026 | 23 | 215 | 16.1 | 35.4 | 0.00 | 0.66 | 0.28 | 31 | 1011.7 |
| 20260505205545 | 23 | 238 | 19.3 | 46.7 | 0.00 | 0.66 | 0.28 | 29 | 1011.8 |
| 20260505205028 | 23 | 231 | 25.7 | 46.7 | 0.00 | 0.66 | 0.28 | 29 | 1011.8 |
| 20260505204535 | 23 | 255 | 19.3 | 38.6 | 0.00 | 0.66 | 0.28 | 31 | 1011.8 |
| 20260505204025 | 23 | 255 | 25.7 | 49.9 | 0.00 | 0.66 | 0.28 | 32 | 1011.8 |
| 20260505203606 | 23 | 246 | 30.6 | 49.9 | 0.00 | 0.66 | 0.28 | 32 | 1011.8 |
| 20260505203027 | 23 | 219 | 29.0 | 43.5 | 0.00 | 0.66 | 0.28 | 31 | 1011.9 |
| 20260505202559 | 23 | 227 | 24.1 | 43.5 | 0.00 | 0.66 | 0.28 | 31 | 1011.8 |
| 20260505202038 | 23 | 240 | 27.4 | 49.9 | 0.00 | 0.66 | 0.28 | 32 | 1011.9 |
| 20260505201531 | 23 | 211 | 27.4 | 49.9 | 0.00 | 0.66 | 0.28 | 30 | 1011.9 |
| 20260505201043 | 23 | 252 | 29.0 | 49.9 | 0.00 | 0.66 | 0.28 | 31 | 1012.0 |
| 20260505200526 | 23 | 245 | 30.6 | 56.3 | 0.00 | 0.66 | 0.28 | 32 | 1012.0 |
| 20260505200038 | 23 | 225 | 33.8 | 56.3 | 0.00 | 0.66 | 0.28 | 31 | 1011.9 |
| 20260505195545 | 23 | 255 | 24.1 | 45.1 | 0.00 | 0.66 | 0.28 | 32 | 1012.0 |
| 20260505195025 | 23 | 243 | 27.4 | 46.7 | 0.00 | 0.66 | 0.28 | 31 | 1012.1 |
| 20260505194605 | 23 | 295 | 24.1 | 46.7 | 0.00 | 0.66 | 0.28 | 34 | 1012.0 |
| 20260505194027 | 23 | 281 | 22.5 | 45.1 | 0.00 | 0.66 | 0.28 | 33 | 1012.0 |
| 20260505193532 | 23 | 277 | 25.7 | 45.1 | 0.00 | 0.66 | 0.28 | 35 | 1012.1 |
| 20260505193044 | 23 | 262 | 29.0 | 45.1 | 0.00 | 0.66 | 0.28 | 36 | 1012.1 |
| 20260505192534 | 23 | 257 | 25.7 | 48.3 | 0.00 | 0.66 | 0.28 | 38 | 1012.1 |
| 20260505192036 | 22 | 277 | 20.9 | 48.3 | 0.00 | 0.66 | 0.28 | 40 | 1012.0 |
| 20260505191535 | 22 | 252 | 27.4 | 40.2 | 0.00 | 0.66 | 0.28 | 41 | 1012.1 |
| 20260505191026 | 22 | 252 | 25.7 | 46.7 | 0.00 | 0.66 | 0.28 | 42 | 1012.2 |
| 20260505190544 | 22 | 223 | 30.6 | 46.7 | 0.00 | 0.66 | 0.28 | 42 | 1012.2 |
| 20260505190048 | 22 | 262 | 25.7 | 40.2 | 0.00 | 0.66 | 0.28 | 44 | 1012.2 |
| 20260505185524 | 22 | 245 | 25.7 | 40.2 | 0.00 | 0.66 | 0.28 | 43 | 1012.2 |
| 20260505185052 | 22 | 231 | 24.1 | 37.0 | 0.00 | 0.66 | 0.28 | 44 | 1012.3 |
| 20260505184542 | 22 | 260 | 22.5 | 35.4 | 0.00 | 0.66 | 0.28 | 44 | 1012.3 |
| 20260505184047 | 22 | 267 | 24.1 | 35.4 | 0.00 | 0.66 | 0.28 | 45 | 1012.3 |
| 20260505183530 | 22 | 255 | 20.9 | 38.6 | 0.00 | 0.66 | 0.28 | 46 | 1012.5 |
| 20260505183038 | 22 | 257 | 20.9 | 38.6 | 0.00 | 0.66 | 0.28 | 46 | 1012.5 |
| 20260505182550 | 22 | 230 | 17.7 | 30.6 | 0.00 | 0.66 | 0.28 | 46 | 1012.5 |
| 20260505182052 | 22 | 253 | 20.9 | 30.6 | 0.00 | 0.66 | 0.28 | 48 | 1012.6 |
| 20260505181554 | 21 | 236 | 12.9 | 20.9 | 0.00 | 0.66 | 0.28 | 52 | 1012.6 |
| 20260505181102 | 21 | 195 | 4.8 | 20.9 | 0.00 | 0.66 | 0.28 | 51 | 1012.6 |
| 20260505180531 | 21 | 218 | 4.8 | 20.9 | 0.00 | 0.66 | 0.28 | 51 | 1012.7 |
| 20260505180042 | 20 | 253 | 8.0 | 22.5 | 0.00 | 0.66 | 0.28 | 53 | 1012.8 |
| 20260505175543 | 20 | 233 | 9.7 | 22.5 | 0.00 | 0.66 | 0.28 | 55 | 1012.9 |
| 20260505175026 | 20 | 227 | 11.3 | 20.9 | 0.00 | 0.66 | 0.28 | 55 | 1013.0 |
| 20260505174535 | 20 | 284 | 8.0 | 16.1 | 0.00 | 0.66 | 0.28 | 57 | 1013.0 |
| 20260505174026 | 20 | 208 | 11.3 | 19.3 | 0.00 | 0.66 | 0.28 | 56 | 1013.0 |
| 20260505173607 | 20 | 229 | 11.3 | 19.3 | 0.00 | 0.66 | 0.28 | 57 | 1013.1 |
| 20260505173030 | 20 | 276 | 8.0 | 14.5 | 0.00 | 0.66 | 0.28 | 57 | 1013.1 |
| 20260505172536 | 20 | 298 | 9.7 | 14.5 | 0.00 | 0.66 | 0.28 | 56 | 1013.1 |
| 20260505172047 | 20 | 281 | 9.7 | 14.5 | 0.00 | 0.66 | 0.28 | 58 | 1013.1 |
| 20260505171600 | 20 | 4 | 4.8 | 20.9 | 0.00 | 0.66 | 0.28 | 57 | 1013.1 |
| 20260505171043 | 20 | 283 | 16.1 | 20.9 | 0.00 | 0.66 | 0.28 | 57 | 1013.1 |
| 20260505170540 | 19 | 269 | 9.7 | 17.7 | 0.00 | 0.66 | 0.28 | 59 | 1013.0 |
| 20260505170112 | 18 | 324 | 4.8 | 9.7 | 0.00 | 0.66 | 0.28 | 59 | 1013.0 |
| 20260505165603 | 18 | 343 | 4.8 | 9.7 | 0.00 | 0.66 | 0.28 | 60 | 1013.0 |
| 20260505165027 | 18 | 338 | 3.2 | 14.5 | 0.00 | 0.66 | 0.28 | 59 | 1012.9 |
| 20260505164534 | 18 | 213 | 4.8 | 16.1 | 0.00 | 0.66 | 0.28 | 59 | 1012.9 |
| 20260505164046 | 18 | 295 | 6.4 | 11.3 | 0.00 | 0.66 | 0.28 | 62 | 1013.0 |
| 20260505163556 | 18 | 269 | 6.4 | 9.7 | 0.00 | 0.66 | 0.28 | 64 | 1012.9 |
| 20260505163036 | 17 | 250 | 4.8 | 11.3 | 0.00 | 0.66 | 0.28 | 64 | 1012.9 |
| 20260505162533 | 17 | 72 | 3.2 | 14.5 | 0.00 | 0.66 | 0.28 | 64 | 1012.9 |
| 20260505162045 | 17 | 290 | 8.0 | 14.5 | 0.00 | 0.66 | 0.28 | 66 | 1013.0 |
| 20260505161547 | 17 | 352 | 6.4 | 12.9 | 0.00 | 0.66 | 0.28 | 67 | 1013.0 |
| 20260505161029 | 17 | 307 | 3.2 | 11.3 | 0.00 | 0.66 | 0.28 | 68 | 1013.1 |
| 20260505160600 | 17 | 245 | 4.8 | 11.3 | 0.00 | 0.66 | 0.28 | 69 | 1013.1 |
| 20260505153037 | 16 | 290 | 4.8 | 12.9 | 0.00 | 0.66 | 0.28 | 75 | 1012.9 |
| 20260505152541 | 16 | 246 | 8.0 | 16.1 | 0.00 | 0.66 | 0.28 | 74 | 1012.9 |
| 20260505152043 | 16 | 271 | 8.0 | 16.1 | 0.00 | 0.66 | 0.28 | 76 | 1012.8 |
| 20260505151541 | 16 | 286 | 6.4 | 16.1 | 0.00 | 0.66 | 0.28 | 76 | 1012.9 |
| 20260505151052 | 16 | 298 | 9.7 | 14.5 | 0.00 | 0.66 | 0.28 | 77 | 1012.9 |
| 20260505150534 | 15 | 284 | 8.0 | 16.1 | 0.00 | 0.66 | 0.28 | 78 | 1013.0 |
| 20260505140600 | 15 | 279 | 1.6 | 4.8 | 0.03 | 0.66 | 0.28 | 82 | 1012.7 |
| 20260505124549 | 15 | 135 | 4.8 | 8.0 | 0.00 | 0.64 | 0.25 | 83 | 1011.8 |
| 20260505124032 | 15 | 156 | 4.8 | 8.0 | 0.00 | 0.64 | 0.25 | 83 | 1011.8 |
| 20260505123535 | 15 | 160 | 4.8 | 9.7 | 0.00 | 0.64 | 0.25 | 84 | 1011.7 |
| 20260505123039 | 15 | 135 | 4.8 | 11.3 | 0.00 | 0.64 | 0.25 | 84 | 1011.7 |
| 20260505122537 | 14 | 126 | 6.4 | 11.3 | 0.00 | 0.64 | 0.25 | 84 | 1011.7 |
| 20260505122048 | 15 | 144 | 4.8 | 8.0 | 0.00 | 0.64 | 0.25 | 85 | 1011.6 |
| 20260505121538 | 15 | 172 | 4.8 | 12.9 | 0.00 | 0.64 | 0.25 | 84 | 1011.5 |
| 20260505121041 | 15 | 152 | 6.4 | 14.5 | 0.00 | 0.64 | 0.25 | 83 | 1011.6 |
| 20260505120539 | 15 | 149 | 9.7 | 17.7 | 0.00 | 0.64 | 0.25 | 83 | 1011.8 |
| 20260505120029 | 15 | 146 | 8.0 | 17.7 | 0.00 | 0.64 | 0.25 | 83 | 1011.3 |
| 20260505115600 | 15 | 102 | 9.7 | 16.1 | 0.00 | 0.64 | 0.25 | 84 | 1011.3 |
| 20260505115043 | 15 | 141 | 4.8 | 12.9 | 0.00 | 0.64 | 0.25 | 84 | 1011.6 |
| 20260505114546 | 15 | 129 | 8.0 | 12.9 | 0.00 | 0.64 | 0.25 | 83 | 1011.6 |
| 20260505114051 | 15 | 117 | 6.4 | 17.7 | 0.00 | 0.64 | 0.25 | 84 | 1011.3 |
| 20260505113533 | 15 | 108 | 9.7 | 17.7 | 0.00 | 0.64 | 0.25 | 83 | 1011.3 |
| 20260505113036 | 14 | 126 | 6.4 | 14.5 | 0.00 | 0.64 | 0.25 | 85 | 1011.2 |
| 20260505112539 | 14 | 135 | 6.4 | 16.1 | 0.00 | 0.64 | 0.25 | 86 | 1011.5 |
| 20260505112039 | 14 | 138 | 8.0 | 16.1 | 0.00 | 0.64 | 0.25 | 87 | 1011.8 |
| 20260505111549 | 14 | 122 | 6.4 | 14.5 | 0.00 | 0.64 | 0.25 | 86 | 1011.8 |
| 20260505111051 | 14 | 127 | 8.0 | 14.5 | 0.00 | 0.64 | 0.25 | 86 | 1011.9 |
| 20260505110533 | 14 | 121 | 8.0 | 19.3 | 0.00 | 0.64 | 0.25 | 87 | 1011.9 |